Voltar ao catálogo

IRIDIUM 33 DEB

AtivoPO
NORAD 33862·DEBRIS·🇺🇸 United States

Lançado Sep 14, 1997 de Baikonur Cosmodrome

Loading…

Próximas Passagens (próximas 24 horas)

TLE

AtualizadoSource: Space-Track

Época: Sep 14, 2026, 00:23 UTC

1 33862U 97051AF  26257.01642935  .00001999  00000-0  29458-3 0  9995
2 33862  86.4043 275.5772 0047787 189.0055 201.0314 14.74042394928744

Acompanhe IRIDIUM 33 DEB em tempo real com AllMySat

Download on the App Store